{"data":{"norad_id":35931,"intl_designator":"2009-051A","name":"OCEANSAT-2","alt_names":[],"object_type":"PAYLOAD","status":"ACTIVE","operator":null,"country":"IND","launch_date":"2009-09-23","launch_site_code":"SRILR","launch_vehicle":null,"mission":null,"orbit_class":"UNKNOWN","rcs_meters":4.0639,"size_class":null,"mass_kg":null,"dimensions":null,"purposes":["earth_obs"],"wikipedia_slug":null,"has_3d_model":false,"image_url":null,"decayed_at":null,"tle_current":{"epoch":"2026-05-25T04:20:46.962240Z","epoch_age_seconds":53252,"freshness":"FRESH","line1":"1 35931U 09051A   26145.18109910  .00000384  00000+0  28822-3 0  9992","line2":"2 35931  98.2309 134.3296 0014624 306.3737  53.6080 13.99655039876113","mean_motion":13.99655039,"eccentricity":0.0014624,"inclination_deg":98.2309,"raan_deg":134.3296,"arg_perigee_deg":306.3737,"mean_anomaly_deg":53.608,"bstar":0.00028822,"rev_number":87611,"period_min":102.88249317695,"perigee_km":884.35370471865,"apogee_km":905.62614635046,"semimajor_km":7273.1269255346,"source":"CELESTRAK","updated_at":"2026-05-25T13:38:12.776736Z"}}}